When you browse on this site, cookies collect data to enhance your experience and personalize the content and advertising you see.
Visit our Privacy Policy to learn more. By continuing to use the site, you agree to this use of cookies and data.
  • en France
  • Liste des pays
  • À 7 jours
  • Température de l'eau
  • Carte satellitaire
  • Carte météo
  • Widgets météo
  • user-avatar
    Se connecter

    Météo par heure à Megri

    Ce jour, 17 Juillet, Mercredi

    Heure Température Précipitation Vent Pression Humidité
    00:00 +19°C° 0 mm 3 m/s 619 mmHg 67%
    01:00 +18°C° 0 mm 3 m/s 619 mmHg 68%
    02:00 +18°C° 0 mm 3 m/s 619 mmHg 69%
    03:00 +17°C° 0 mm 3 m/s 618 mmHg 69%
    04:00 +18°C° 0 mm 3 m/s 619 mmHg 66%
    05:00 +18°C° 0 mm 3 m/s 619 mmHg 64%
    06:00 +18°C° 0 mm 3 m/s 620 mmHg 61%
    07:00 +20°C° 0 mm 3 m/s 620 mmHg 54%
    08:00 +22°C° 0 mm 3 m/s 621 mmHg 48%
    09:00 +25°C° 0 mm 3 m/s 621 mmHg 41%
    10:00 +26°C° 0 mm 3 m/s 621 mmHg 38%
    11:00 +27°C° 0 mm 3 m/s 622 mmHg 35%
    12:00 +29°C° 0 mm 3 m/s 622 mmHg 31%
    13:00 +29°C° 0 mm 4 m/s 622 mmHg 31%
    14:00 +30°C° 0 mm 4 m/s 621 mmHg 31%
    15:00 +30°C° 0 mm 4 m/s 621 mmHg 31%
    16:00 +29°C° 0 mm 4 m/s 621 mmHg 34%
    17:00 +29°C° 0 mm 4 m/s 621 mmHg 36%
    18:00 +28°C° 0 mm 4 m/s 621 mmHg 38%
    19:00 +26°C° 0 mm 4 m/s 620 mmHg 47%
    20:00 +24°C° 0 mm 3 m/s 620 mmHg 55%
    21:00 +21°C° 0 mm 3 m/s 620 mmHg 63%
    22:00 +20°C° 0 mm 3 m/s 620 mmHg 65%
    23:00 +20°C° 0 mm 3 m/s 620 mmHg 67%

    Demain, 18 Juillet, Jeudi

    Heure Température Précipitation Vent Pression Humidité
    00:00 +19°C° 0 mm 3 m/s 619 mmHg 68%
    01:00 +19°C° 0 mm 3 m/s 619 mmHg 70%
    02:00 +18°C° 0 mm 2 m/s 619 mmHg 71%
    03:00 +18°C° 0 mm 2 m/s 619 mmHg 73%
    04:00 +19°C° 0 mm 2 m/s 619 mmHg 70%
    05:00 +19°C° 0 mm 2 m/s 620 mmHg 67%
    06:00 +20°C° 0 mm 2 m/s 620 mmHg 64%
    07:00 +23°C° 0 mm 2 m/s 621 mmHg 54%
    08:00 +25°C° 0 mm 2 m/s 622 mmHg 45%
    09:00 +27°C° 0 mm 2 m/s 622 mmHg 35%
    10:00 +28°C° 0 mm 2 m/s 622 mmHg 30%
    11:00 +30°C° 0 mm 3 m/s 623 mmHg 26%
    12:00 +32°C° 0 mm 4 m/s 623 mmHg 21%
    13:00 +33°C° 0 mm 4 m/s 623 mmHg 18%
    14:00 +33°C° 0 mm 5 m/s 622 mmHg 16%
    15:00 +34°C° 0 mm 6 m/s 622 mmHg 14%
    16:00 +33°C° 0 mm 5 m/s 622 mmHg 16%
    17:00 +32°C° 0 mm 4 m/s 622 mmHg 18%
    18:00 +32°C° 0 mm 4 m/s 622 mmHg 20%
    19:00 +28°C° 0 mm 3 m/s 621 mmHg 29%
    20:00 +25°C° 0 mm 3 m/s 621 mmHg 38%
    21:00 +23°C° 0 mm 2 m/s 620 mmHg 47%
    22:00 +21°C° 0 mm 2 m/s 620 mmHg 48%
    23:00 +20°C° 0 mm 2 m/s 620 mmHg 50%

    Après-demain, 19 Juillet, Vendredi

    Heure Température Précipitation Vent Pression Humidité
    00:00 +20°C° 0 mm 2 m/s 620 mmHg 52%
    01:00 +20°C° 0 mm 1 m/s 620 mmHg 53%
    02:00 +20°C° 0 mm 1 m/s 620 mmHg 55%
    03:00 +19°C° 0 mm 1 m/s 620 mmHg 56%
    04:00 +20°C° 0 mm 1 m/s 620 mmHg 55%
    05:00 +20°C° 0 mm 1 m/s 621 mmHg 53%
    06:00 +21°C° 0 mm 1 m/s 621 mmHg 52%
    07:00 +23°C° 0 mm 2 m/s 622 mmHg 47%
    08:00 +24°C° 0 mm 2 m/s 623 mmHg 42%
    09:00 +26°C° 0 mm 2 m/s 623 mmHg 37%
    10:00 +27°C° 0 mm 2 m/s 623 mmHg 35%
    11:00 +29°C° 0 mm 3 m/s 623 mmHg 32%
    12:00 +30°C° 0 mm 3 m/s 624 mmHg 30%
    13:00 +30°C° 0 mm 3 m/s 623 mmHg 30%
    14:00 +30°C° 0 mm 4 m/s 623 mmHg 31%
    15:00 +32°C° 0 mm 4 m/s 623 mmHg 32%
    16:00 +29°C° 0 mm 4 m/s 622 mmHg 35%
    17:00 +28°C° 0 mm 4 m/s 622 mmHg 38%
    18:00 +27°C° 0 mm 5 m/s 622 mmHg 42%
    19:00 +25°C° 0 mm 5 m/s 622 mmHg 47%
    20:00 +23°C° 0 mm 5 m/s 622 mmHg 52%
    21:00 +21°C° 0 mm 5 m/s 622 mmHg 57%
    22:00 +20°C° 0 mm 4 m/s 622 mmHg 61%
    23:00 +20°C° 0 mm 4 m/s 622 mmHg 64%

    20 Juillet, Samedi

    Heure Température Précipitation Vent Pression Humidité
    00:00 +19°C° 0 mm 4 m/s 622 mmHg 67%
    01:00 +19°C° 0 mm 4 m/s 622 mmHg 67%
    02:00 +18°C° 0 mm 4 m/s 622 mmHg 68%
    03:00 +18°C° 0 mm 3 m/s 623 mmHg 68%
    04:00 +18°C° 0 mm 3 m/s 623 mmHg 66%
    05:00 +18°C° 0 mm 4 m/s 623 mmHg 64%
    06:00 +19°C° 0 mm 4 m/s 624 mmHg 62%
    07:00 +20°C° 0 mm 4 m/s 625 mmHg 55%
    08:00 +22°C° 0 mm 4 m/s 625 mmHg 48%
    09:00 +25°C° 0 mm 4 m/s 626 mmHg 42%
    10:00 +27°C° 0 mm 5 m/s 627 mmHg 38%
    11:00 +28°C° 0 mm 5 m/s 627 mmHg 34%
    12:00 +30°C° 0 mm 5 m/s 627 mmHg 30%
    13:00 +32°C° 0 mm 5 m/s 627 mmHg 30%
    14:00 +32°C° 0 mm 5 m/s 627 mmHg 29%
    15:00 +33°C° 0 mm 5 m/s 627 mmHg 28%
    16:00 +30°C° 0 mm 5 m/s 626 mmHg 32%
    17:00 +29°C° 0 mm 5 m/s 626 mmHg 36%
    18:00 +27°C° 0 mm 5 m/s 625 mmHg 40%
    19:00 +25°C° 0 mm 5 m/s 625 mmHg 44%
    20:00 +23°C° 0 mm 5 m/s 625 mmHg 49%
    21:00 +21°C° 0 mm 5 m/s 625 mmHg 53%
    22:00 +20°C° 0 mm 4 m/s 625 mmHg 55%
    23:00 +20°C° 0 mm 4 m/s 625 mmHg 56%

    21 Juillet, Dimanche

    Heure Température Précipitation Vent Pression Humidité
    00:00 +19°C° 0 mm 4 m/s 625 mmHg 58%
    01:00 +19°C° 0 mm 4 m/s 625 mmHg 58%
    02:00 +19°C° 0 mm 4 m/s 625 mmHg 58%
    03:00 +19°C° 0 mm 3 m/s 625 mmHg 58%
    04:00 +19°C° 0 mm 3 m/s 625 mmHg 56%
    05:00 +19°C° 0 mm 3 m/s 625 mmHg 55%
    06:00 +20°C° 0 mm 3 m/s 625 mmHg 53%
    07:00 +22°C° 0 mm 3 m/s 626 mmHg 47%
    08:00 +25°C° 0 mm 3 m/s 627 mmHg 40%
    09:00 +28°C° 0 mm 4 m/s 627 mmHg 33%
    10:00 +29°C° 0 mm 4 m/s 627 mmHg 30%
    11:00 +32°C° 0 mm 4 m/s 628 mmHg 27%
    12:00 +34°C° 0 mm 4 m/s 628 mmHg 24%
    13:00 +34°C° 0 mm 4 m/s 627 mmHg 24%
    14:00 +35°C° 0 mm 4 m/s 627 mmHg 23%
    15:00 +35°C° 0 mm 4 m/s 626 mmHg 23%
    16:00 +34°C° 0 mm 4 m/s 626 mmHg 26%
    17:00 +33°C° 0 mm 4 m/s 626 mmHg 28%
    18:00 +30°C° 0 mm 4 m/s 625 mmHg 31%
    19:00 +29°C° 0 mm 4 m/s 625 mmHg 35%
    20:00 +27°C° 0 mm 4 m/s 624 mmHg 40%
    21:00 +25°C° 0 mm 4 m/s 624 mmHg 44%
    22:00 +23°C° 0 mm 4 m/s 624 mmHg 45%
    23:00 +24°C° 0 mm 3 m/s 624 mmHg 47%

    22 Juillet, Lundi

    Heure Température Précipitation Vent Pression Humidité
    00:00 +22°C° 0 mm 3 m/s 623 mmHg 49%
    01:00 +22°C° 0 mm 3 m/s 623 mmHg 49%
    02:00 +22°C° 0 mm 3 m/s 623 mmHg 50%
    03:00 +21°C° 0 mm 3 m/s 623 mmHg 50%
    04:00 +22°C° 0 mm 3 m/s 623 mmHg 48%
    05:00 +24°C° 0 mm 2 m/s 623 mmHg 46%
    06:00 +24°C° 0 mm 2 m/s 624 mmHg 43%
    07:00 +27°C° 0 mm 2 m/s 624 mmHg 38%
    08:00 +29°C° 0 mm 2 m/s 625 mmHg 32%
    09:00 +31°C° 0 mm 2 m/s 625 mmHg 27%
    10:00 +34°C° 0 mm 2 m/s 625 mmHg 24%
    11:00 +35°C° 0 mm 3 m/s 626 mmHg 22%
    12:00 +36°C° 0 mm 3 m/s 626 mmHg 19%
    13:00 +36°C° 0 mm 3 m/s 625 mmHg 19%
    14:00 +36°C° 0 mm 3 m/s 625 mmHg 19%
    15:00 +37°C° 0 mm 4 m/s 624 mmHg 19%
    16:00 +35°C° 0 mm 4 m/s 624 mmHg 25%
    17:00 +33°C° 0 mm 5 m/s 623 mmHg 30%
    18:00 +30°C° 0 mm 5 m/s 622 mmHg 35%
    19:00 +28°C° 0 mm 5 m/s 622 mmHg 40%
    20:00 +26°C° 0 mm 5 m/s 622 mmHg 44%
    21:00 +22°C° 0 mm 5 m/s 622 mmHg 49%
    22:00 +22°C° 0 mm 5 m/s 622 mmHg 50%
    23:00 +21°C° 0 mm 5 m/s 621 mmHg 52%
    Voir plus